175P/Hergenrother (2026)

Japanese version
Home page
Updated on August 11, 2025

---------------------------------------------------------------------

* Profile

* Orbital Elements

Epoch 2026 Aug. 28.0 TT = JDT 2461280.5
T 2026 Sept. 3.17503 TT                                 MPCW
q   2.3070368            (2000.0)            P               Q
n   0.13922431     Peri.   74.59511     -0.99369927     +0.07761460
a   3.6868828      Node   109.80322     -0.10220927     -0.92355528
e   0.3742582      Incl.    4.93000     +0.04598944     -0.37552845
P   7.08
From 812 observations 2000 Jan. 4-2019 Jan. 11, mean residual 0".6.
     Nongravitational parameters A1 = +0.54, A2 = +0.0097.

* Magnitudes Graph

        m1 = 9.5 + 5 log d + 20.0 log r(t - 50)

---------------------------------------------------------------------

The orbital elements are published on M.P.E.C. 2019-J142.
The magnitudes graphs are made with Comet for Windows.

---------------------------------------------------------------------

Copyright(C) Seiichi Yoshida (comet@aerith.net). All rights reserved.